Regional Weather Roundup
Issued by NWS

Home | Current Version | Previous Version | Graphics & Text | Print | Product List | Glossary On
Versions: 1 2 3 4 5 6 7 8 9 10 11 12 13 14 15 16 17 18 19 20 21 22 23 24 25 26 27 28 29 30 31 32 33 34 35 36 37 38 39 40 41 42 43 44 45 46 47 48 49 50
295
ASUS43 KIND 271059
RWRIN

WEATHER ROUNDUP FOR INDIANA
NATIONAL WEATHER SERVICE INDIANAPOLIS IN
700 AM EDT MON MAR 27 2017

NOTE: "FAIR" INDICATES FEW OR NO CLOUDS BELOW 12,000 FEET WITH NO
SIGNIFICANT WEATHER AND/OR OBSTRUCTIONS TO VISIBILITY.

* - STATION DOES NOT REPORT WEATHER SUCH AS PRECIPITATION OR FOG.

+ - STATION NOT QUALITY CONTROLLED BY THE NATIONAL WEATHER SERVICE.
    USE DATA WITH CAUTION...ESPECIALLY DEWPOINT AND RELATIVE
    HUMIDITY OBSERVATIONS.

INZ001>003-010>013-019-020-271200-
NORTHWEST INDIANA

CITY           SKY/WX    TMP DP  RH WIND       PRES   REMARKS
GARY /AIRPORT/ LGT RAIN  52  48  87 W6        29.92R
KNOX *+        CLOUDY    48  41  76 W8        29.91F
MONTICELLO +   CLOUDY    49  47  92 W3        29.92S
VALPARAISO     CLOUDY    50  49  96 W12       29.92R FOG

$$

LMZ046-743>745-271200-
SOUTHERN LAKE MICHIGAN

STATION/POSITION TIME  TEMP    WIND        PRES    WAVE
                       AIR SEA DIR/SP/G            HT
                 (UTC) (F)     (DEG/KT/KT) (MB)    (FT)
BURNS HARBOR     1040   46     270/  9/ 12 1013.2S
MICHIGAN CITY    1030   46     230/ 14/ 15   N/A

$$

INZ004-005-014>016-021>024-271200-
NORTH CENTRAL INDIANA

CITY           SKY/WX    TMP DP  RH WIND       PRES   REMARKS
ELKHART        CLOUDY    48  48 100 W6        29.90  FOG
GOSHEN         CLOUDY    50  47  89 W12       29.90S
PERU/GRISSOM   CLOUDY    50  50 100 W6        29.91F
SOUTH BEND     CLOUDY    49  48  97 SW7       29.90S

$$

INZ006>009-017-018-025>027-271200-
NORTHEAST INDIANA

CITY           SKY/WX    TMP DP  RH WIND       PRES   REMARKS
ANGOLA *+      CLOUDY    50  41  71 W3        29.90R
FORT WAYNE     DRIZZLE   51  48  89 SW7       29.92S
KENDALLVILLE + CLOUDY    49  49  98 W7        29.90F FOG

$$

INZ028-029-035-036-043>045-051>053-271200-
WEST CENTRAL INDIANA

CITY           SKY/WX    TMP DP  RH WIND       PRES   REMARKS
CRAWFORDSVL +  CLOUDY    49  49 100 CALM      29.95R
GREENCASTLE +  PTCLDY    45  43  93 S5        29.95R FOG
LAFAYETTE      CLOUDY    50  48  93 SW3       29.94R
TERRE HAUTE    CLEAR     45  43  93 SE3       29.94S FOG

$$

INZ030>032-037>040-046>048-054>057-064-065-271200-
CENTRAL INDIANA

CITY           SKY/WX    TMP DP  RH WIND       PRES   REMARKS
COLUMBUS       CLEAR     41  41 100 CALM      29.96
INDIANAPOLIS   PTCLDY    47  46  97 S5        29.95R
-EAGLE CREEK   MOCLDY    49  46  90 SW5       29.95R
KOKOMO +       CLOUDY    51  48  89 W7        29.93F
SHELBYVILLE    CLEAR     46  43  89 S8        29.95S

$$

INZ033-034-041-042-049-050-058-059-271200-
EAST CENTRAL INDIANA

CITY           SKY/WX    TMP DP  RH WIND       PRES   REMARKS
MUNCIE         CLOUDY    53  49  86 SW5       29.93F
RICHMOND +     CLOUDY    46  45  93 SW5       29.96F

$$

INZ060-061-067>069-081>083-085>088-271200-
SOUTHWEST INDIANA

CITY           SKY/WX    TMP DP  RH WIND       PRES   REMARKS
EVANSVILLE     CLOUDY    47  44  90 NE5       29.94S
HUNTINGBURG *+ CLOUDY    45  44  97 CALM      29.95S

$$

INZ062-063-066-070>080-084-089>092-271200-
SOUTH CENTRAL AND SOUTHEAST INDIANA

CITY           SKY/WX    TMP DP  RH WIND       PRES   REMARKS
BLOOMINGTON    CLEAR     41  39  93 CALM      29.95R
MADISON *+       N/A     43  43 100 CALM      29.99S VSB 1/2
SEYMOUR +      FOG       43  43 100 CALM      29.97R VSB 3/4

$$





USA.gov is the U.S. government's official web portal to all federal, state and local government web resources and services.